When you browse on this site, cookies collect data to enhance your experience and personalize the content and advertising you see.
Visit our Privacy Policy to learn more. By continuing to use the site, you agree to this use of cookies and data.
  • In Österreich
  • Länderverzeichnis
  • Für 7 Tage
  • Wassertemperatur
  • Wetterkarte
  • News
  • Widgets
  • user-avatar
    Anmelden

    Stündliche Wetter Zastavtsi

    Heute, 23 Oktober, Mittwoch

    Zeit Temperatur Niederschläge Wind Luftdruck Luftfeuchtigkeit
    00:00 +13°C° 0 mm 2 m/S 742 mmHg 71%
    01:00 +13°C° 0 mm 2 m/S 742 mmHg 73%
    02:00 +13°C° 0 mm 2 m/S 742 mmHg 74%
    03:00 +12°C° 0 mm 2 m/S 742 mmHg 76%
    04:00 +12°C° 0 mm 2 m/S 741 mmHg 77%
    05:00 +12°C° 0 mm 2 m/S 741 mmHg 79%
    06:00 +12°C° 0 mm 2 m/S 741 mmHg 77%
    07:00 +13°C° 0 mm 2 m/S 741 mmHg 76%
    08:00 +13°C° 0 mm 2 m/S 742 mmHg 74%
    09:00 +15°C° 0 mm 2 m/S 742 mmHg 68%
    10:00 +17°C° 0 mm 2 m/S 741 mmHg 61%
    11:00 +20°C° 0 mm 1 m/S 741 mmHg 55%
    12:00 +20°C° 0 mm 2 m/S 741 mmHg 53%
    13:00 +21°C° 0 mm 2 m/S 741 mmHg 52%
    14:00 +23°C° 0 mm 2 m/S 741 mmHg 50%
    15:00 +20°C° 0 mm 2 m/S 741 mmHg 56%
    16:00 +20°C° 0 mm 1 m/S 741 mmHg 61%
    17:00 +19°C° 0 mm 1 m/S 740 mmHg 66%
    18:00 +18°C° 0 mm 1 m/S 740 mmHg 71%
    19:00 +16°C° 0 mm 1 m/S 740 mmHg 76%
    20:00 +15°C° 0 mm 1 m/S 740 mmHg 80%
    21:00 +14°C° 0 mm 1 m/S 740 mmHg 81%
    22:00 +13°C° 0 mm 0 m/S 740 mmHg 83%
    23:00 +13°C° 0 mm 0 m/S 740 mmHg 84%

    Morgen, 24 Oktober, Donnerstag

    Zeit Temperatur Niederschläge Wind Luftdruck Luftfeuchtigkeit
    00:00 +12°C° 0 mm 0 m/S 740 mmHg 84%
    01:00 +12°C° 0 mm 0 m/S 740 mmHg 84%
    02:00 +12°C° 0 mm 0 m/S 740 mmHg 85%
    03:00 +12°C° 0 mm 0 m/S 740 mmHg 85%
    04:00 +12°C° 0 mm 1 m/S 740 mmHg 86%
    05:00 +12°C° 0 mm 1 m/S 739 mmHg 87%
    06:00 +13°C° 0 mm 1 m/S 739 mmHg 85%
    07:00 +13°C° 0 mm 1 m/S 739 mmHg 84%
    08:00 +13°C° 0 mm 2 m/S 740 mmHg 83%
    09:00 +15°C° 0 mm 2 m/S 740 mmHg 73%
    10:00 +18°C° 0 mm 2 m/S 740 mmHg 63%
    11:00 +20°C° 0 mm 3 m/S 740 mmHg 54%
    12:00 +21°C° 0 mm 2 m/S 740 mmHg 51%
    13:00 +23°C° 0 mm 2 m/S 739 mmHg 47%
    14:00 +23°C° 0 mm 2 m/S 739 mmHg 44%
    15:00 +21°C° 0 mm 2 m/S 739 mmHg 49%
    16:00 +19°C° 0 mm 2 m/S 738 mmHg 54%
    17:00 +18°C° 0 mm 2 m/S 738 mmHg 59%
    18:00 +17°C° 0 mm 2 m/S 738 mmHg 61%
    19:00 +16°C° 0 mm 2 m/S 738 mmHg 64%
    20:00 +14°C° 0 mm 3 m/S 738 mmHg 67%
    21:00 +14°C° 0 mm 3 m/S 738 mmHg 67%
    22:00 +13°C° 0 mm 3 m/S 738 mmHg 68%
    23:00 +13°C° 0 mm 3 m/S 738 mmHg 69%

    übermorgen, 25 Oktober, Freitag

    Zeit Temperatur Niederschläge Wind Luftdruck Luftfeuchtigkeit
    00:00 +12°C° 0 mm 3 m/S 738 mmHg 70%
    01:00 +12°C° 0 mm 3 m/S 738 mmHg 70%
    02:00 +12°C° 0 mm 3 m/S 738 mmHg 71%
    03:00 +11°C° 0 mm 3 m/S 738 mmHg 71%
    04:00 +11°C° 0 mm 3 m/S 738 mmHg 72%
    05:00 +11°C° 0 mm 3 m/S 738 mmHg 72%
    06:00 +11°C° 0 mm 3 m/S 738 mmHg 70%
    07:00 +11°C° 0 mm 3 m/S 738 mmHg 68%
    08:00 +12°C° 0 mm 3 m/S 738 mmHg 66%
    09:00 +14°C° 0 mm 3 m/S 739 mmHg 59%
    10:00 +17°C° 0 mm 3 m/S 739 mmHg 52%
    11:00 +20°C° 0 mm 3 m/S 739 mmHg 44%
    12:00 +20°C° 0 mm 3 m/S 739 mmHg 42%
    13:00 +21°C° 0 mm 3 m/S 739 mmHg 40%
    14:00 +22°C° 0 mm 3 m/S 739 mmHg 38%
    15:00 +21°C° 0 mm 3 m/S 739 mmHg 43%
    16:00 +19°C° 0 mm 2 m/S 739 mmHg 48%
    17:00 +17°C° 0 mm 2 m/S 739 mmHg 53%
    18:00 +16°C° 0 mm 2 m/S 739 mmHg 55%
    19:00 +16°C° 0 mm 2 m/S 739 mmHg 58%
    20:00 +15°C° 0 mm 2 m/S 739 mmHg 61%
    21:00 +14°C° 0 mm 2 m/S 740 mmHg 64%
    22:00 +14°C° 0 mm 2 m/S 740 mmHg 68%
    23:00 +13°C° 0 mm 2 m/S 740 mmHg 71%

    26 Oktober, Samstag

    Zeit Temperatur Niederschläge Wind Luftdruck Luftfeuchtigkeit
    00:00 +13°C° 0 mm 2 m/S 740 mmHg 76%
    01:00 +12°C° 0 mm 2 m/S 740 mmHg 81%
    02:00 +12°C° 0 mm 2 m/S 740 mmHg 86%
    03:00 +11°C° 0 mm 1 m/S 740 mmHg 86%
    04:00 +11°C° 0 mm 1 m/S 740 mmHg 87%
    05:00 +11°C° 0 mm 1 m/S 740 mmHg 88%
    06:00 +11°C° 0 mm 1 m/S 741 mmHg 88%
    07:00 +11°C° 0 mm 1 m/S 741 mmHg 88%
    08:00 +12°C° 0 mm 1 m/S 741 mmHg 87%
    09:00 +14°C° 0 mm 1 m/S 741 mmHg 79%
    10:00 +16°C° 0 mm 1 m/S 741 mmHg 70%
    11:00 +19°C° 0 mm 1 m/S 741 mmHg 62%
    12:00 +20°C° 0 mm 1 m/S 740 mmHg 56%
    13:00 +20°C° 0 mm 2 m/S 740 mmHg 51%
    14:00 +21°C° 0 mm 2 m/S 740 mmHg 45%
    15:00 +20°C° 0 mm 2 m/S 739 mmHg 50%
    16:00 +18°C° 0 mm 2 m/S 739 mmHg 55%
    17:00 +17°C° 0 mm 2 m/S 739 mmHg 59%
    18:00 +16°C° 0 mm 2 m/S 739 mmHg 62%
    19:00 +15°C° 0 mm 2 m/S 739 mmHg 65%
    20:00 +14°C° 0 mm 2 m/S 739 mmHg 68%
    21:00 +13°C° 0 mm 3 m/S 738 mmHg 69%
    22:00 +12°C° 0 mm 3 m/S 738 mmHg 69%
    23:00 +12°C° 0 mm 3 m/S 738 mmHg 70%

    27 Oktober, Sonntag

    Zeit Temperatur Niederschläge Wind Luftdruck Luftfeuchtigkeit
    00:00 +11°C° 0 mm 3 m/S 738 mmHg 71%
    01:00 +11°C° 0 mm 3 m/S 738 mmHg 71%
    02:00 +11°C° 0 mm 3 m/S 738 mmHg 72%
    03:00 +11°C° 0 mm 3 m/S 738 mmHg 73%
    04:00 +10°C° 0 mm 3 m/S 737 mmHg 75%
    05:00 +10°C° 0 mm 2 m/S 737 mmHg 76%
    06:00 +11°C° 0 mm 3 m/S 737 mmHg 74%
    07:00 +11°C° 0 mm 3 m/S 737 mmHg 73%
    08:00 +11°C° 0 mm 3 m/S 737 mmHg 71%
    09:00 +14°C° 0 mm 3 m/S 737 mmHg 63%
    10:00 +17°C° 0 mm 3 m/S 737 mmHg 54%
    11:00 +19°C° 0 mm 3 m/S 737 mmHg 46%
    12:00 +20°C° 0 mm 3 m/S 737 mmHg 43%
    13:00 +21°C° 0 mm 3 m/S 736 mmHg 41%
    14:00 +22°C° 0 mm 3 m/S 736 mmHg 38%
    15:00 +20°C° 0 mm 3 m/S 736 mmHg 42%
    16:00 +19°C° 0 mm 3 m/S 735 mmHg 46%
    17:00 +17°C° 0 mm 2 m/S 735 mmHg 50%
    18:00 +16°C° 0 mm 2 m/S 735 mmHg 53%
    19:00 +15°C° 0 mm 2 m/S 735 mmHg 56%
    20:00 +14°C° 0 mm 2 m/S 735 mmHg 59%
    21:00 +14°C° 0 mm 2 m/S 735 mmHg 63%
    22:00 +13°C° 0 mm 2 m/S 736 mmHg 66%
    23:00 +12°C° 0 mm 2 m/S 736 mmHg 70%

    28 Oktober, Montag

    Zeit Temperatur Niederschläge Wind Luftdruck Luftfeuchtigkeit
    00:00 +12°C° 0 mm 2 m/S 736 mmHg 72%
    01:00 +12°C° 0 mm 2 m/S 736 mmHg 75%
    02:00 +12°C° 0 mm 2 m/S 736 mmHg 77%
    03:00 +10°C° 0 mm 2 m/S 736 mmHg 81%
    04:00 +10°C° 0 mm 2 m/S 736 mmHg 86%
    05:00 +9°C° 0 mm 2 m/S 736 mmHg 90%
    06:00 +9°C° 0 mm 2 m/S 736 mmHg 87%
    07:00 +9°C° 0 mm 2 m/S 736 mmHg 85%
    08:00 +9°C° 0 mm 2 m/S 736 mmHg 83%
    09:00 +9°C° 0 mm 2 m/S 736 mmHg 80%
    10:00 +10°C° 0 mm 3 m/S 736 mmHg 77%
    11:00 +10°C° 0 mm 3 m/S 736 mmHg 74%
    12:00 +9°C° 0.1 mm 3 m/S 736 mmHg 75%
    13:00 +9°C° 0.1 mm 2 m/S 736 mmHg 76%
    14:00 +9°C° 0.1 mm 2 m/S 736 mmHg 77%
    15:00 +8°C° 0.2 mm 2 m/S 735 mmHg 79%
    16:00 +8°C° 0.2 mm 2 m/S 735 mmHg 80%
    17:00 +7°C° 0.2 mm 2 m/S 735 mmHg 82%
    18:00 +7°C° 0 mm 2 m/S 735 mmHg 81%
    19:00 +7°C° 0 mm 2 m/S 735 mmHg 79%
    20:00 +7°C° 0 mm 2 m/S 736 mmHg 78%
    21:00 +7°C° 0 mm 2 m/S 736 mmHg 79%
    22:00 +7°C° 0 mm 3 m/S 736 mmHg 80%
    23:00 +5°C° 0 mm 3 m/S 736 mmHg 81%

    29 Oktober, Dienstag

    Zeit Temperatur Niederschläge Wind Luftdruck Luftfeuchtigkeit
    00:00 +5°C° 0 mm 3 m/S 736 mmHg 83%
    01:00 +4°C° 0 mm 3 m/S 736 mmHg 84%
    02:00 +4°C° 0 mm 2 m/S 736 mmHg 86%
    03:00 +4°C° 0 mm 2 m/S 736 mmHg 87%
    04:00 +3°C° 0 mm 2 m/S 735 mmHg 88%
    05:00 +3°C° 0 mm 2 m/S 735 mmHg 89%
    06:00 +3°C° 0 mm 2 m/S 736 mmHg 87%
    07:00 +2°C° 0 mm 3 m/S 736 mmHg 84%
    08:00 +3°C° 0 mm 3 m/S 736 mmHg 81%
    09:00 +4°C° 0 mm 4 m/S 736 mmHg 71%
    10:00 +5°C° 0 mm 5 m/S 736 mmHg 61%
    11:00 +7°C° 0 mm 6 m/S 736 mmHg 51%
    12:00 +5°C° 0 mm 6 m/S 736 mmHg 52%
    13:00 +5°C° 0 mm 6 m/S 736 mmHg 53%
    14:00 +5°C° 0 mm 6 m/S 736 mmHg 55%
    15:00 +6°C° 0 mm 5 m/S 736 mmHg 59%
    16:00 +5°C° 0 mm 5 m/S 736 mmHg 62%
    17:00 +5°C° 0 mm 5 m/S 736 mmHg 66%
    18:00 +3°C° 0.1 mm 5 m/S 737 mmHg 73%
    19:00 +2°C° 0.1 mm 6 m/S 737 mmHg 80%
    20:00 0°C° 0.1 mm 7 m/S 738 mmHg 87%
    21:00 -1°C° 0 mm 6 m/S 739 mmHg 80%
    22:00 -2°C° 0 mm 6 m/S 739 mmHg 72%
    23:00 -2°C° 0 mm 5 m/S 740 mmHg 65%
    Mehr zeigen